Regional Weather Roundup
Issued by NWS State College, PA

Home | Current Version | Previous Version | Graphics & Text | Print | Product List | Glossary Off
Versions: 1 2 3 4 5 6 7 8 9 10 11 12 13 14 15 16 17 18 19 20 21 22 23 24 25 26 27 28 29 30 31 32 33 34 35 36 37 38 39 40 41 42 43 44 45 46 47 48 49 50

000
ASUS41 KCTP 301510
RWRCTP

REGIONAL WEATHER ROUNDUP
NATIONAL WEATHER SERVICE STATE COLLEGE PA
1100 AM EDT SUN APR 30 2017

Note: "fair" indicates few or no clouds below 12,000 feet with no
significant weather and/or obstructions to visibility.

* = STATION THAT DOES NOT REPORT PRECIPITATION /E.G. RAIN...SNOW...ETC/
    THUNDER OR FOG.

PAZ002>004-007>009-013>016-020>023-029>032-301600-
WESTERN PENNSYLVANIA

CITY           SKY/WX    TMP DP  RH WIND       PRES   REMARKS
ERIE           MOSUNNY   53  44  71 NE9       30.01F
MEADVILLE      MOSUNNY   71  63  75 VRB5      30.01F
FRANKLIN*      SUNNY     70  61  73 S12       30.05F
NEW CASTLE     FAIR      74  65  73 S7        30.02F
BEAVER COUNTY  SUNNY     73  64  73 SE6       30.03F
BUTLER*        MOSUNNY   73  64  73 S6        30.05S
PITTSBURGH INT PTSUNNY   75  65  70 SE6       30.03F
PITTSBURGH     PTSUNNY   74  62  66 S9        30.04F
INDIANA*       PTSUNNY   73  64  73 S6        30.10F
LATROBE        PTSUNNY   81  64  57 SW17      30.07F
WASHINGTON CO* SUNNY     79  64  61 S7        30.05F
$$

PAZ004>006-010>012-017>019-024>028-033>037-041-042-045-046-049>053-301600-
CENTRAL PENNSYLVANIA

CITY           SKY/WX    TMP DP  RH WIND       PRES   REMARKS
BRADFORD       PTSUNNY   64  54  69 SE10      30.09F
DUBOIS         MOSUNNY   65  56  72 SE9       30.08F
CLEARFIELD     CLOUDY    65  57  75 E8        30.11F
JOHNSTOWN      SUNNY     70  62  76 S7        30.12F
ALTOONA        CLOUDY    66  58  75 VRB3      30.14F
STATE COLLEGE  CLOUDY    61  52  72 CALM      30.15F
WILLIAMSPORT   CLOUDY    56  45  66 E5        30.16F
SELINSGROVE    CLOUDY    60  46  59 CALM      30.17F
FT INDIANTOWN  PTSUNNY   64  48  56 NE5       30.17F
CAPITAL CITY   CLOUDY    68  51  54 E9        30.16F
HARRISBURG     CLOUDY    67  51  56 E10       30.15F
YORK           CLOUDY    69  59  70 E7        30.14F
$$

PAZ038>040-043-044-047-048-054-055-060>062-067>071-301600-
EASTERN PENNSYLVANIA

CITY           SKY/WX    TMP DP  RH WIND       PRES   REMARKS
SCRANTON       CLOUDY    60  41  49 VRB3      30.17F
MOUNT POCONO   CLOUDY    54  40  59 SE10      30.20R
ALLENTOWN      CLOUDY    66  47  50 E8        30.20R
QUAKERTOWN*    PTSUNNY   66  50  55 SE10      30.20S
READING        CLOUDY    66  51  58 SE7       30.16F
LANCASTER      CLOUDY    69  57  65 SE10      30.15F
COATESVILLE    CLOUDY    68  52  56 E12       30.19S
POTTSTOWN      CLOUDY    66  50  56 VRB6      30.19F
BLUE BELL      CLOUDY    64  46  52 SE10G20   30.21R
DOYLESTOWN     CLOUDY    65  49  56 S9        30.19F
WILLOW GROVE   NOT AVBL
NORTH PHILA    PTSUNNY   67  45  45 SE15      30.21F
PHILADELPHIA   CLOUDY    69  49  48 E13       30.19F
$$



USA.gov is the U.S. government's official web portal to all federal, state and local government web resources and services.